Location: Cheching
(60.0667°N, 164.2167°W)
Time: 21:12:18
(UTC+00:00)

XW-2D - Pass Details

Date: 24 January 2021
Orbit: 505 x 525 km, 97.5° (Epoch: 07 March)

Event Time Altitude Azimuth Distance (km) Brightness Sun altitude
Rises 16:25:39 0° 20° (NNE) 2,675 ? -21.8°
Reaches altitude 10° 16:27:58 10° 31° (NNE) 1,782 ? -21.5°
Maximum altitude 16:31:24 31° 95° (E) 958 ? -21.1°
Drops below altitude 10° 16:34:49 10° 158° (SSE) 1,772 ? -20.7°
Sets 16:37:06 0° 169° (S) 2,656 ? -20.4°
